When you browse on this site, cookies collect data to enhance your experience and personalize the content and advertising you see.
Visit our Privacy Policy to learn more. By continuing to use the site, you agree to this use of cookies and data.
  • In Netherlands
  • List of Countries
  • For 7 days
  • Water Temperature
  • Satellite Maps
  • Weather Map
  • Weather Widgets
  • user-avatar
    Login

    Hourly Weather Kalgoorlie

    Today, 17 January, Thursday

    Time Temperature Precipitation Wind Pressure Humidity
    00:00 +30°C° 0 mm 6 mps 724 mmHg 44%
    01:00 +28°C° 0 mm 6 mps 724 mmHg 50%
    02:00 +27°C° 0 mm 6 mps 725 mmHg 54%
    03:00 +26°C° 0 mm 6 mps 725 mmHg 57%
    04:00 +24°C° 0 mm 6 mps 725 mmHg 59%
    05:00 +23°C° 0 mm 6 mps 725 mmHg 62%
    06:00 +25°C° 0 mm 5 mps 725 mmHg 59%
    07:00 +26°C° 0 mm 5 mps 726 mmHg 57%
    08:00 +26°C° 0 mm 5 mps 726 mmHg 54%
    09:00 +28°C° 0 mm 4 mps 726 mmHg 49%
    10:00 +30°C° 0 mm 3 mps 726 mmHg 45%
    11:00 +32°C° 0 mm 2 mps 725 mmHg 40%
    12:00 +34°C° 0 mm 2 mps 725 mmHg 35%
    13:00 +35°C° 0 mm 2 mps 724 mmHg 31%
    14:00 +37°C° 0 mm 2 mps 724 mmHg 26%
    15:00 +37°C° 0 mm 2 mps 724 mmHg 25%
    16:00 +37°C° 0 mm 3 mps 724 mmHg 24%
    17:00 +37°C° 0 mm 4 mps 723 mmHg 22%
    18:00 +37°C° 0 mm 5 mps 724 mmHg 24%
    19:00 +36°C° 0 mm 5 mps 724 mmHg 26%
    20:00 +35°C° 0 mm 6 mps 725 mmHg 27%
    21:00 +33°C° 0 mm 8 mps 726 mmHg 34%
    22:00 +31°C° 0 mm 9 mps 726 mmHg 40%
    23:00 +27°C° 0 mm 11 mps 727 mmHg 46%

    Tomorrow, 18 January, Friday

    Time Temperature Precipitation Wind Pressure Humidity
    00:00 +26°C° 0.3 mm 10 mps 728 mmHg 51%
    01:00 +23°C° 0.3 mm 9 mps 728 mmHg 57%
    02:00 +21°C° 0.3 mm 9 mps 729 mmHg 62%
    03:00 +21°C° 0 mm 8 mps 729 mmHg 63%
    04:00 +21°C° 0 mm 8 mps 729 mmHg 63%
    05:00 +20°C° 0 mm 7 mps 730 mmHg 64%
    06:00 +21°C° 0 mm 7 mps 730 mmHg 61%
    07:00 +22°C° 0 mm 7 mps 730 mmHg 58%
    08:00 +23°C° 0 mm 7 mps 730 mmHg 55%
    09:00 +26°C° 0 mm 6 mps 730 mmHg 50%
    10:00 +27°C° 0 mm 6 mps 730 mmHg 44%
    11:00 +29°C° 0 mm 6 mps 730 mmHg 39%
    12:00 +32°C° 0 mm 5 mps 730 mmHg 35%
    13:00 +33°C° 0 mm 5 mps 730 mmHg 32%
    14:00 +34°C° 0 mm 5 mps 729 mmHg 28%
    15:00 +34°C° 0 mm 5 mps 729 mmHg 26%
    16:00 +35°C° 0 mm 5 mps 729 mmHg 24%
    17:00 +35°C° 0 mm 5 mps 729 mmHg 23%
    18:00 +34°C° 0 mm 5 mps 730 mmHg 23%
    19:00 +34°C° 0 mm 5 mps 730 mmHg 24%
    20:00 +33°C° 0 mm 5 mps 731 mmHg 25%
    21:00 +32°C° 0 mm 6 mps 731 mmHg 30%
    22:00 +29°C° 0 mm 8 mps 732 mmHg 35%
    23:00 +28°C° 0 mm 9 mps 732 mmHg 40%

    Day after tomorrow, 19 January, Saturday

    Time Temperature Precipitation Wind Pressure Humidity
    00:00 +27°C° 0 mm 9 mps 732 mmHg 45%
    01:00 +24°C° 0 mm 8 mps 732 mmHg 50%
    02:00 +23°C° 0 mm 8 mps 731 mmHg 55%
    03:00 +22°C° 0 mm 7 mps 732 mmHg 57%
    04:00 +22°C° 0 mm 7 mps 732 mmHg 59%
    05:00 +21°C° 0 mm 7 mps 732 mmHg 61%
    06:00 +22°C° 0 mm 7 mps 732 mmHg 58%
    07:00 +23°C° 0 mm 7 mps 733 mmHg 54%
    08:00 +24°C° 0 mm 7 mps 733 mmHg 51%
    09:00 +27°C° 0 mm 6 mps 733 mmHg 45%
    10:00 +29°C° 0 mm 6 mps 733 mmHg 39%
    11:00 +32°C° 0 mm 5 mps 732 mmHg 33%
    12:00 +33°C° 0 mm 5 mps 732 mmHg 29%
    13:00 +35°C° 0 mm 4 mps 731 mmHg 24%
    14:00 +36°C° 0 mm 4 mps 730 mmHg 20%
    15:00 +36°C° 0 mm 4 mps 730 mmHg 18%
    16:00 +36°C° 0 mm 4 mps 730 mmHg 17%
    17:00 +37°C° 0 mm 4 mps 730 mmHg 15%
    18:00 +36°C° 0 mm 4 mps 730 mmHg 15%
    19:00 +35°C° 0 mm 4 mps 730 mmHg 15%
    20:00 +34°C° 0 mm 4 mps 731 mmHg 15%
    21:00 +33°C° 0 mm 4 mps 731 mmHg 16%
    22:00 +33°C° 0 mm 5 mps 731 mmHg 16%
    23:00 +32°C° 0 mm 6 mps 731 mmHg 17%

    20 January, Sunday

    Time Temperature Precipitation Wind Pressure Humidity
    00:00 +30°C° 0 mm 6 mps 731 mmHg 21%
    01:00 +29°C° 0 mm 6 mps 731 mmHg 24%
    02:00 +28°C° 0 mm 6 mps 730 mmHg 28%
    03:00 +27°C° 0 mm 6 mps 730 mmHg 33%
    04:00 +26°C° 0 mm 6 mps 730 mmHg 37%
    05:00 +26°C° 0 mm 5 mps 730 mmHg 42%
    06:00 +27°C° 0 mm 5 mps 731 mmHg 38%
    07:00 +29°C° 0 mm 6 mps 731 mmHg 35%
    08:00 +30°C° 0 mm 6 mps 732 mmHg 31%
    09:00 +33°C° 0 mm 5 mps 731 mmHg 27%
    10:00 +35°C° 0 mm 4 mps 731 mmHg 23%
    11:00 +37°C° 0 mm 3 mps 731 mmHg 19%
    12:00 +38°C° 0 mm 4 mps 730 mmHg 17%
    13:00 +40°C° 0 mm 4 mps 730 mmHg 15%
    14:00 +41°C° 0 mm 4 mps 729 mmHg 13%
    15:00 +41°C° 0 mm 4 mps 729 mmHg 12%
    16:00 +41°C° 0 mm 4 mps 729 mmHg 12%
    17:00 +41°C° 0 mm 4 mps 728 mmHg 11%
    18:00 +39°C° 0 mm 3 mps 729 mmHg 12%
    19:00 +38°C° 0 mm 3 mps 729 mmHg 13%
    20:00 +37°C° 0 mm 3 mps 729 mmHg 14%
    21:00 +37°C° 0 mm 4 mps 729 mmHg 15%
    22:00 +36°C° 0 mm 4 mps 729 mmHg 15%
    23:00 +35°C° 0 mm 5 mps 729 mmHg 16%

    21 January, Monday

    Time Temperature Precipitation Wind Pressure Humidity
    00:00 +34°C° 0 mm 5 mps 728 mmHg 17%
    01:00 +34°C° 0 mm 6 mps 728 mmHg 17%
    02:00 +33°C° 0 mm 6 mps 727 mmHg 18%
    03:00 +32°C° 0 mm 5 mps 727 mmHg 19%
    04:00 +32°C° 0 mm 5 mps 727 mmHg 20%
    05:00 +30°C° 0 mm 5 mps 727 mmHg 20%
    06:00 +33°C° 0 mm 5 mps 727 mmHg 19%
    07:00 +34°C° 0 mm 6 mps 728 mmHg 17%
    08:00 +36°C° 0 mm 7 mps 728 mmHg 15%
    09:00 +39°C° 0 mm 6 mps 727 mmHg 14%
    10:00 +40°C° 0 mm 5 mps 727 mmHg 13%
    11:00 +42°C° 0 mm 4 mps 727 mmHg 11%
    12:00 +43°C° 0 mm 4 mps 726 mmHg 10%
    13:00 +44°C° 0 mm 3 mps 725 mmHg 8%
    14:00 +44°C° 0 mm 3 mps 725 mmHg 7%
    15:00 +44°C° 0 mm 3 mps 724 mmHg 7%
    16:00 +43°C° 0 mm 2 mps 724 mmHg 6%
    17:00 +45°C° 0 mm 2 mps 724 mmHg 6%
    18:00 +42°C° 0 mm 2 mps 724 mmHg 6%
    19:00 +42°C° 0 mm 3 mps 724 mmHg 7%
    20:00 +40°C° 0 mm 3 mps 724 mmHg 7%
    21:00 +38°C° 0 mm 4 mps 724 mmHg 14%
    22:00 +36°C° 0 mm 6 mps 724 mmHg 20%
    23:00 +34°C° 0 mm 7 mps 724 mmHg 26%

    22 January, Tuesday

    Time Temperature Precipitation Wind Pressure Humidity
    00:00 +31°C° 0 mm 8 mps 724 mmHg 35%
    01:00 +27°C° 0 mm 9 mps 723 mmHg 45%
    02:00 +23°C° 0 mm 10 mps 723 mmHg 55%
    03:00 +22°C° 0 mm 10 mps 723 mmHg 56%
    04:00 +21°C° 0 mm 10 mps 724 mmHg 58%
    05:00 +21°C° 0 mm 10 mps 724 mmHg 60%
    06:00 +21°C° 0 mm 10 mps 725 mmHg 60%
    07:00 +22°C° 0 mm 10 mps 725 mmHg 59%
    08:00 +22°C° 0 mm 10 mps 726 mmHg 59%
    09:00 +23°C° 0 mm 10 mps 726 mmHg 56%
    10:00 +24°C° 0 mm 9 mps 726 mmHg 54%
    11:00 +26°C° 0 mm 8 mps 726 mmHg 52%
    12:00 +26°C° 0 mm 9 mps 726 mmHg 51%
    13:00 +26°C° 0 mm 11 mps 725 mmHg 50%
    14:00 +27°C° 0 mm 12 mps 725 mmHg 49%
    15:00 +26°C° 0 mm 12 mps 726 mmHg 48%
    16:00 +26°C° 0 mm 12 mps 726 mmHg 48%
    17:00 +24°C° 0 mm 12 mps 726 mmHg 48%
    18:00 +22°C° 0 mm 12 mps 727 mmHg 53%
    19:00 +19°C° 0 mm 11 mps 728 mmHg 58%
    20:00 +17°C° 0 mm 11 mps 728 mmHg 64%
    21:00 +16°C° 0 mm 10 mps 729 mmHg 63%
    22:00 +16°C° 0 mm 10 mps 729 mmHg 63%
    23:00 +15°C° 0 mm 9 mps 729 mmHg 62%
    Show more